www.pogodaiklimat.ru

АРХИВ ПОГОДЫ в Roma

Время (UTC), дата Ветер
(напр.,м/с)
 
Видим.   Явления Облачность Т
(С)
Тd
(С)
f
(%)
Тe
(С)
Тes
(С)
Комфортность P
(гПа)
Po
(гПа)
Тmin
(С)
Tmax
(С)
R
(мм)
S
(см)
15 11.01 С 3 40 км ясно +6.9 -7.4 35 +5 +5 прохладно 1018.7 1018.2
18 11.01 В 2 40 км ясно +1.0 -7.6 53 -2 -2 очень
холодно
1020.2 1019.7 +7.7
21 11.01 С 1 25 км ясно -2.0 -7.1 68 -4 -4 очень
холодно
1021.9 1021.3
00 12.01 В 3 20 км 3/3 1230 м
[Cu hum]
-2.8 -6.0 79 -7 -7 очень
холодно
1022.4 1021.9
03 12.01 В 3 20 км 3/3 1230 м
[Cu hum]
+1.1 -4.4 67 -3 -3 холодно 1021.7 1021.2
06 12.01 В 3 20 км 6/6 1050 м
[Cu Sc]
+3.3 -3.8 60 -0 -0 прохладно 1021.4 1020.9 -3.6
09 12.01 В 4 12 км 9/9 960 м
[Cu Sc]
+5.2 -2.5 58 +2 +2 прохладно 1022.3 1021.8
12 12.01 В 4 2000 м морось 10/10 500 м
[Cu Sc]
+6.9 +4.1 82 +4 +4 холодно 1021.3 1020.8 0.2
15 12.01 ЮВ 7 4000 м слабый дождь {морось} 10/10 450 м
[Cu Sc]
+8.3 +6.8 90 +4 +4 прохладно 1019.7 1019.2
18 12.01 ЮВ 8 12 км {дождь, морось} 8/8 450 м
[Cu Sc]
+8.6 +7.1 90 +4 +4 по сезону 1018.9 1018.4 +8.8 3
21 12.01 ЮВ 6 12 км слабый дождь {морось} 9/9 450 м
[Cu Sc]
+9.7 +8.6 93 +6 +6 по сезону 1017.8 1017.3
00 13.01 Ю 3 10 км слабый дождь 9/9 300 м
[Cu Sc]
+10.6 +9.4 92 +8 +8 тепло 1015.8 1015.4 0.8
03 13.01 ЮЗ 7 10 км 9/9 300 м
[Cu Sc]
+14.2 +9.6 74 +12 +12 тепло 1012.4 1011.9
06 13.01 Ю 8 17 км 9/9 750 м
[Cu Sc]
+14.1 +11.1 82 +12 +12 тепло 1009.0 1008.5 +8.6 0.8
09 13.01 Ю 9 9000 м дымка {дождь} 8/5 1500 м
[Cu Sc Ac As]
+14.8 +10.5 75 +13 +13 тепло 1006.7 1006.2
12 13.01 СЗ 7 3000 м сильный дождь {морось} 10/9 450 м
[Cu Sc Ac As]
+9.2 +7.4 88 +5 +5 холодно 1004.0 1003.5 6
15 13.01 З 8 9000 м слабый дождь 9/9 750 м
[Frnb Ac As]
+11.4 +1.7 51 +8 +8 по сезону 1002.5 1002.0
18 13.01 СЗ 10 30 км {дождь} 4/0
[Ac cuf Ci]
+8.9 +0.8 57 +4 +4 по сезону 1004.0 1003.5 +15.1 9
21 13.01 С 6 25 км слабый дождь 9/9 600 м
[Cu Sc Ac cuf]
+3.4 +1.1 85 -2 -2 холодно 1005.7 1007.3
00 14.01 З 5 25 км {дождь} 6/6 1500 м
[Cu hum Ac lent]
+7.3 -1.5 54 +4 +4 по сезону 1007.0 1006.5 0.2
03 14.01 С 3 40 км {дождь} 1/0
[Ac lent]
+3.3 -2.2 67 -0 -0 прохладно 1007.6 1007.1
06 14.01 СВ 2 40 км {дождь} 1/0
[Ac lent]
-1.3 -2.8 90 -5 -5 очень
холодно
1009.4 1008.9 -2.0 0.2
09 14.01 С 3 40 км 1/1 900 м
[Cb calv]
+4.5 -0.1 72 +1 +4 холодно 1011.3 1010.8
12 14.01 ЮВ 1 40 км 1/1 900 м
[Cb calv]
+9.2 -5.0 36 +9 +14 по сезону 1011.5 1011.0 0.2
15 14.01 СВ 2 >70 км 1/1 900 м
[Cu hum Ci fib]
+9.5 -4.5 37 +9 +9 по сезону 1011.3 1010.8
18 14.01 В 3 50 км 4/3 1050 м
[Cu hum Ac trans Ci fib]
+3.8 -2.8 62 +1 +1 холодно 1011.8 1011.3 +10.8 0.2
21 14.01 В 2 30 км 8/0
[Cs]
+1.6 -3.0 71 -2 -2 холодно 1011.2 1010.7
00 15.01 СВ 2 30 км 8/3 1500 м
[Sc diur, vesp Cs]
+2.7 -1.5 74 -0 -0 прохладно 1010.8 1010.3
03 15.01 В 2 30 км слабый дождь {гроза} 8/8 450 м
[Cu Sc]
+3.3 -0.6 76 0 0 прохладно 1010.0 1009.5
06 15.01 С 3 20 км {гроза, дождь} 8/0
[As op]
+3.3 -3.1 63 0 0 прохладно 1009.0 1008.5 +0.6 0.4
09 15.01 СВ 3 25 км 9/9 900 м
[Cu med, cong As op Cs]
+6.2 -4.4 47 +4 +4 прохладно 1009.3 1008.8
12 15.01 В 4 30 км 10/3 1200 м
[Cu med, cong As op]
+8.5 -3.6 42 +6 +6 холодно 1008.2 1007.7
15 15.01 СВ 2 70 км {дождь, морось} 9/6 750 м
[Frnb As op]
+7.6 -1.9 51 +6 +6 прохладно 1008.7 1008.2
18 15.01 СВ 3 50 км {дождь, морось} 5/0
[Ac trans Cs]
+3.7 -3.2 61 +1 +1 холодно 1008.0 1007.5 +9.1
21 15.01 С 5 50 км 6/0
[Ac lent Cs]
+4.7 -1.4 65 +1 +1 прохладно 1007.6 1007.2
00 16.01 С 8 50 км 6/0
[Ac lent Cs]
+6.1 -3.0 52 +1 +1 прохладно 1006.7 1006.2
03 16.01 С 8 50 км 6/0
[Ac lent Cs]
+6.5 -3.2 50 +2 +2 по сезону 1005.9 1005.4
06 16.01 С 7 50 км 9/0
[Ac lent Cs]
+6.2 -2.7 53 +2 +2 по сезону 1006.1 1005.6 +2.9
09 16.01 С 8 40 км 9/6 1050 м
[St Ac lent Cs]
+5.9 -2.0 57 +1 +1 холодно 1006.5 1006.0
12 16.01 С 7 15 км слабый дождь {морось} 9/8 540 м
[Cu Sc Ac cuf Cs]
+5.1 +0.7 73 -0 0 очень
холодно
1005.5 1005.0
15 16.01 С 9 40 км 10/9 1500 м
[Cu Sc As trans]
+5.3 -0.4 67 -0 -0 очень
холодно
1004.0 1003.5
18 16.01 СВ 6 40 км 9/0
[Ac As]
+4.6 -1.2 66 -0 -0 холодно 1003.3 1002.8 +6.8
21 16.01 СВ 7 40 км 9/0
[Ac As]
+4.8 -2.3 60 -0 -0 прохладно 1003.3 1002.8
00 17.01 СВ 7 50 км 8/0
[Ac As]
+4.4 -2.3 62 -1 -1 прохладно 1002.8 1002.3
03 17.01 С 7 50 км 8/0
[Ac lent]
+4.7 -2.1 61 -1 -1 прохладно 1002.3 1001.8
06 17.01 СВ 7 50 км 5/0
[Ac lent Cs]
+4.9 -2.4 59 -0 -0 прохладно 1002.5 1002.0 +4.1
09 17.01 СВ 8 50 км 8/0
[Ac lent Cs]
+7.5 -2.7 48 +3 +3 прохладно 1003.6 1003.1
12 17.01 С 9 50 км 8/0
[Ac cuf Cs]
+9.6 -0.9 48 +6 +6 холодно 1002.5 1002.1
15 17.01 СВ 9 50 км 8/0
[Ac cuf Cs]
+9.7 -1.4 46 +6 +6 прохладно 1003.5 1003.0
18 17.01 СВ 4 25 км слабый дождь {морось} 8/8 660 м
[Cu Sc As trans]
+7.0 -0.6 58 +4 +4 по сезону 1005.9 1005.4 +11.5
21 17.01 С 11 30 км {дождь, морось} 8/0
[Ac As]
+6.9 -0.6 59 +1 +1 прохладно 1005.9 1005.4
00 18.01 СВ 11 40 км слабый дождь 8/8
[St As op Cs]
+6.6 +0.1 63 +1 +1 прохладно 1007.3 1006.8
03 18.01 СВ 7 40 км 4/0
[Ci]
+5.0 -0.9 66 -0 -0 прохладно 1008.4 1007.9
06 18.01 СВ 6 40 км 6/0
[As op]
+6.8 -1.1 57 +3 +3 по сезону 1009.3 1008.8 +5.0
09 18.01 С 7 40 км 8/8 900 м
[Cu med, cong As op]
+7.6 -0.6 56 +3 +3 прохладно 1011.2 1010.7
12 18.01 С 9 30 км 8/5 1200 м
[Cu hum As op Ci ing]
+10.0 +0.3 51 +6 +6 холодно 1010.3 1009.8

 

Местоположение метеостанции Roma (Италия): широта 41.80 долгота 12.23 высота над уровнем моря 3 м.

В архиве по умолчанию представлена погода в Roma за последнюю неделю. Архивные данные за месяц целиком и за предыдущие месяцы, начиная с января 2011 года, Вы можете получить, выбрав интересующий диапазон дат из раскрывающегося списка и нажав кнопку "Ввод!".

Внимание! Время в таблицах - всемирное. Для получения местного времени необходимо прибавить поправку, которая в Roma равна 1 ч.

Ветер - указаны скорость ветра в м/с - средняя за 10 мин, порывы в срок и между сроками (в фигурных скобках) и направление, откуда дует ветер: С - северный, СВ - северо-восточный, В - восточный, ЮВ - юго-восточный, Ю - южный, ЮЗ - юго-западный, З - западный, СЗ - северо-западный.
Видимость - горизонтальная дальность видимости в метрах или километрах. При видимости от 1 до 10 км при отсутствии осадков обычно наблюдается дымка, при ухудшении видимости до 1 км и менее - туман. В сухую погоду видимость может ухудшаться дымом, пылью или мглою.
Явления - указаны атмосферные явления, наблюдавшиеся в срок или в последний час перед сроком; фигурными скобками обозначены явления, наблюдавшиеся между сроками (за 1-3 часа до срока); квадратными скобками обозначены град или гололедные отложения с указанием их диаметра в мм.
Облачность - указаны через наклонную черту общая и нижняя облачность в баллах и высота нижней границы облаков в метрах; квадратными скобками обозначены формы облаков: Ci - перистые, Cs - перисто-слоистые, Cc - перисто-кучевые, Ac - высококучевые, As - высокослоистые, Sc - слоисто-кучевые, Ns - слоисто-дождевые, Cu - кучевые, Cb - кучево-дождевые. Подробнее классификацию облаков см. в Атласе облаков (PDF).
T - Температура воздуха - температура, измеренная на высоте 2 м над землей.
Td - Температура точки росы - температура, при понижении до которой содержащийся в воздухе водяной пар достигнет насыщения.
f - Относительная влажность воздуха - влажноcть воздуха, измеренная на высоте 2 м над землей.
Te - Эффективная температура - температура, которую ощущает одетый по сезону человек в тени. Характеристика душности погоды. При расчете учитывается влияние влажности воздуха и скорости ветра на теплоощущения человека.
Tes - Эффективная температура на солнце - температура, которую ощущает человек, с поправкой на солнечный нагрев. Характеристика знойности погоды. Зависит от высоты солнца над горизонтом, облачности и скорости ветра. Ночью, в пасмурную погоду, а также при ветре 12 м/с и более поправка равна нулю.
P - Атмосферное давление - приведенное к уровню моря атмосферное давление.
Po - Атмосферное давление - измеренное на уровне метеостанции атмосферное давление.
Tmin - Минимальная температура - минимум температуры воздуха на высоте 2 м над землей.
Tmax - Максимальная температура - максимум температуры воздуха на высоте 2 м над землей.
R - Количество осадков - Количество выпавших осадков, мм. При наведении курсора мыши на число - период времени, за который выпало указанное количество осадков.
S - Снежный покров - Высота снежного покрова, см. При наведении курсора мыши на число - состояние снежного покрова и степень покрытия местности в баллах.